• In Kazakhstan
  • List of Countries
  • For 7 days
  • Water Temperature
  • Satellite Maps
  • Weather Map
  • News
  • Weather Widgets
  • user-avatar
    Login

    Hourly Weather Salta

    Today, 20 March, Wednesday

    Time Temperature Precipitation Wind Pressure Humidity
    00:00 +19°C° 0.8 mm 1 mps 653 mmHg 95%
    01:00 +19°C° 0.8 mm 1 mps 654 mmHg 96%
    02:00 +17°C° 0.8 mm 2 mps 654 mmHg 97%
    03:00 +17°C° 0.4 mm 2 mps 654 mmHg 97%
    04:00 +17°C° 0.4 mm 2 mps 654 mmHg 97%
    05:00 +17°C° 0.4 mm 2 mps 654 mmHg 97%
    06:00 +16°C° 0.1 mm 2 mps 654 mmHg 97%
    07:00 +16°C° 0.1 mm 2 mps 654 mmHg 97%
    08:00 +16°C° 0.1 mm 2 mps 654 mmHg 97%
    09:00 +16°C° 0.1 mm 2 mps 654 mmHg 94%
    10:00 +16°C° 0.1 mm 2 mps 654 mmHg 92%
    11:00 +17°C° 0.1 mm 2 mps 654 mmHg 90%
    12:00 +16°C° 0.1 mm 2 mps 654 mmHg 91%
    13:00 +16°C° 0.1 mm 2 mps 653 mmHg 92%
    14:00 +16°C° 0.1 mm 2 mps 652 mmHg 92%
    15:00 +16°C° 0.1 mm 2 mps 652 mmHg 92%
    16:00 +16°C° 0.1 mm 2 mps 651 mmHg 92%
    17:00 +16°C° 0.1 mm 1 mps 651 mmHg 92%
    18:00 +15°C° 0.1 mm 1 mps 651 mmHg 93%
    19:00 +15°C° 0.1 mm 1 mps 652 mmHg 94%
    20:00 +14°C° 0.1 mm 1 mps 652 mmHg 96%
    21:00 +14°C° 0.1 mm 1 mps 653 mmHg 95%
    22:00 +14°C° 0.1 mm 1 mps 653 mmHg 95%
    23:00 +14°C° 0.1 mm 1 mps 654 mmHg 94%

    Tomorrow, 21 March, Thursday

    Time Temperature Precipitation Wind Pressure Humidity
    00:00 +14°C° 0.1 mm 1 mps 653 mmHg 95%
    01:00 +12°C° 0.1 mm 0 mps 653 mmHg 95%
    02:00 +12°C° 0.1 mm 0 mps 653 mmHg 96%
    03:00 +12°C° 0.1 mm 0 mps 652 mmHg 96%
    04:00 +12°C° 0.1 mm 0 mps 652 mmHg 96%
    05:00 +12°C° 0.1 mm 0 mps 652 mmHg 96%
    06:00 +13°C° 0.1 mm 1 mps 652 mmHg 95%
    07:00 +14°C° 0.1 mm 1 mps 652 mmHg 93%
    08:00 +14°C° 0.1 mm 1 mps 653 mmHg 92%
    09:00 +15°C° 0.1 mm 1 mps 652 mmHg 91%
    10:00 +16°C° 0.1 mm 2 mps 652 mmHg 89%
    11:00 +16°C° 0.1 mm 2 mps 652 mmHg 88%
    12:00 +16°C° 0.1 mm 2 mps 652 mmHg 88%
    13:00 +17°C° 0.1 mm 2 mps 651 mmHg 89%
    14:00 +17°C° 0.1 mm 2 mps 650 mmHg 89%
    15:00 +17°C° 0.1 mm 2 mps 649 mmHg 89%
    16:00 +18°C° 0.1 mm 1 mps 649 mmHg 90%
    17:00 +16°C° 0.1 mm 1 mps 648 mmHg 91%
    18:00 +16°C° 0 mm 1 mps 648 mmHg 92%
    19:00 +15°C° 0 mm 1 mps 649 mmHg 94%
    20:00 +15°C° 0 mm 1 mps 649 mmHg 96%
    21:00 +14°C° 0 mm 1 mps 649 mmHg 96%
    22:00 +13°C° 0 mm 0 mps 650 mmHg 95%
    23:00 +13°C° 0 mm 0 mps 650 mmHg 95%

    Day after tomorrow, 22 March, Friday

    Time Temperature Precipitation Wind Pressure Humidity
    00:00 +13°C° 0 mm 0 mps 650 mmHg 95%
    01:00 +12°C° 0 mm 0 mps 650 mmHg 95%
    02:00 +12°C° 0 mm 0 mps 650 mmHg 95%
    03:00 +12°C° 0 mm 0 mps 650 mmHg 95%
    04:00 +12°C° 0 mm 0 mps 650 mmHg 95%
    05:00 +12°C° 0 mm 0 mps 650 mmHg 95%
    06:00 +13°C° 0 mm 0 mps 651 mmHg 91%
    07:00 +15°C° 0 mm 1 mps 652 mmHg 87%
    08:00 +18°C° 0 mm 1 mps 653 mmHg 84%
    09:00 +19°C° 0 mm 1 mps 653 mmHg 78%
    10:00 +20°C° 0 mm 2 mps 654 mmHg 73%
    11:00 +21°C° 0 mm 2 mps 654 mmHg 67%
    12:00 +23°C° 0 mm 2 mps 654 mmHg 64%
    13:00 +24°C° 0 mm 2 mps 653 mmHg 61%
    14:00 +25°C° 0 mm 2 mps 653 mmHg 58%
    15:00 +24°C° 0 mm 2 mps 652 mmHg 60%
    16:00 +23°C° 0 mm 2 mps 652 mmHg 62%
    17:00 +23°C° 0 mm 2 mps 652 mmHg 64%
    18:00 +21°C° 0 mm 1 mps 652 mmHg 73%
    19:00 +19°C° 0 mm 1 mps 652 mmHg 81%
    20:00 +15°C° 0 mm 0 mps 652 mmHg 89%
    21:00 +15°C° 0 mm 0 mps 652 mmHg 89%
    22:00 +14°C° 0 mm 0 mps 652 mmHg 89%
    23:00 +14°C° 0 mm 0 mps 652 mmHg 89%

    23 March, Saturday

    Time Temperature Precipitation Wind Pressure Humidity
    00:00 +14°C° 0 mm 0 mps 652 mmHg 90%
    01:00 +13°C° 0 mm 0 mps 652 mmHg 91%
    02:00 +13°C° 0 mm 0 mps 651 mmHg 92%
    03:00 +13°C° 0 mm 0 mps 651 mmHg 92%
    04:00 +13°C° 0 mm 0 mps 651 mmHg 91%
    05:00 +13°C° 0 mm 0 mps 651 mmHg 91%
    06:00 +14°C° 0 mm 0 mps 651 mmHg 87%
    07:00 +18°C° 0 mm 1 mps 652 mmHg 82%
    08:00 +19°C° 0 mm 1 mps 653 mmHg 78%
    09:00 +21°C° 0 mm 1 mps 653 mmHg 71%
    10:00 +23°C° 0 mm 2 mps 653 mmHg 65%
    11:00 +24°C° 0 mm 3 mps 653 mmHg 58%
    12:00 +25°C° 0 mm 3 mps 652 mmHg 55%
    13:00 +26°C° 0 mm 3 mps 651 mmHg 52%
    14:00 +27°C° 0 mm 3 mps 651 mmHg 49%
    15:00 +27°C° 0 mm 3 mps 651 mmHg 51%
    16:00 +26°C° 0 mm 2 mps 650 mmHg 54%
    17:00 +26°C° 0 mm 2 mps 650 mmHg 56%
    18:00 +23°C° 0 mm 2 mps 650 mmHg 65%
    19:00 +21°C° 0 mm 1 mps 650 mmHg 75%
    20:00 +19°C° 0 mm 1 mps 650 mmHg 84%
    21:00 +16°C° 0 mm 0 mps 650 mmHg 86%
    22:00 +16°C° 0 mm 0 mps 651 mmHg 88%
    23:00 +15°C° 0 mm 0 mps 651 mmHg 90%

    24 March, Sunday

    Time Temperature Precipitation Wind Pressure Humidity
    00:00 +15°C° 0 mm 0 mps 651 mmHg 90%
    01:00 +15°C° 0 mm 0 mps 651 mmHg 91%
    02:00 +15°C° 0 mm 0 mps 651 mmHg 91%
    03:00 +15°C° 0 mm 0 mps 651 mmHg 91%
    04:00 +15°C° 0 mm 0 mps 651 mmHg 91%
    05:00 +14°C° 0 mm 0 mps 651 mmHg 90%
    06:00 +16°C° 0 mm 0 mps 652 mmHg 84%
    07:00 +18°C° 0 mm 0 mps 653 mmHg 78%
    08:00 +19°C° 0 mm 0 mps 654 mmHg 71%
    09:00 +23°C° 0 mm 1 mps 655 mmHg 65%
    10:00 +25°C° 0 mm 1 mps 655 mmHg 59%
    11:00 +27°C° 0 mm 2 mps 655 mmHg 52%
    12:00 +27°C° 0.2 mm 2 mps 655 mmHg 53%
    13:00 +27°C° 0.2 mm 2 mps 654 mmHg 53%
    14:00 +27°C° 0.2 mm 3 mps 653 mmHg 54%
    15:00 +26°C° 0.7 mm 2 mps 652 mmHg 61%
    16:00 +25°C° 0.7 mm 2 mps 652 mmHg 68%
    17:00 +23°C° 0.7 mm 2 mps 651 mmHg 75%
    18:00 +22°C° 0.7 mm 1 mps 651 mmHg 80%
    19:00 +21°C° 0.7 mm 1 mps 651 mmHg 86%
    20:00 +20°C° 0.7 mm 1 mps 651 mmHg 91%
    21:00 +17°C° 0.6 mm 0 mps 652 mmHg 92%
    22:00 +17°C° 0.6 mm 0 mps 652 mmHg 92%
    23:00 +17°C° 0.6 mm 0 mps 652 mmHg 93%

    25 March, Monday

    Time Temperature Precipitation Wind Pressure Humidity
    00:00 +17°C° 0.1 mm 0 mps 652 mmHg 93%
    01:00 +16°C° 0.1 mm 0 mps 652 mmHg 93%
    02:00 +16°C° 0.1 mm 0 mps 652 mmHg 94%
    03:00 +16°C° 0.1 mm 0 mps 652 mmHg 94%
    04:00 +18°C° 0.1 mm 1 mps 651 mmHg 94%
    05:00 +16°C° 0.1 mm 1 mps 651 mmHg 95%
    06:00 +18°C° 0.1 mm 1 mps 652 mmHg 95%
    07:00 +18°C° 0.1 mm 1 mps 652 mmHg 94%
    08:00 +18°C° 0.1 mm 1 mps 653 mmHg 94%
    09:00 +19°C° 0.1 mm 1 mps 653 mmHg 90%
    10:00 +20°C° 0.1 mm 1 mps 653 mmHg 87%
    11:00 +20°C° 0.1 mm 2 mps 653 mmHg 83%
    12:00 +20°C° 0.2 mm 2 mps 652 mmHg 84%
    13:00 +20°C° 0.2 mm 2 mps 651 mmHg 85%
    14:00 +21°C° 0.2 mm 1 mps 650 mmHg 86%
    15:00 +20°C° 0.3 mm 1 mps 650 mmHg 88%
    16:00 +20°C° 0.3 mm 1 mps 649 mmHg 90%
    17:00 +19°C° 0.3 mm 1 mps 649 mmHg 93%
    18:00 +19°C° 0.3 mm 1 mps 650 mmHg 94%
    19:00 +19°C° 0.3 mm 1 mps 650 mmHg 95%
    20:00 +18°C° 0.3 mm 1 mps 651 mmHg 96%
    21:00 +18°C° 0.2 mm 1 mps 651 mmHg 96%
    22:00 +18°C° 0.2 mm 1 mps 652 mmHg 97%
    23:00 +18°C° 0.2 mm 1 mps 652 mmHg 97%
    Show more